Simultaneous Nadir Overpasses (SNOs) Predictions

Prediction of SNOs between NOAA-19 and TERRA Satellite Orbit:

Table of predicted SNOs for the next 14.0 days since TLE Epoch: 7/1/2013
Index Date (NOAA-19) Time (NOAA-19) Lat,Lon (NOAA-19) SZA (NOAA-19 ) Date (TERRA) Time (TERRA) Lat,Lon (TERRA) SZA (TERRA ) Distance(km) Time Diff (sec)
1 07/01/2013 17:39:13 -69.64, 95.11 133.52 07/01/2013 17:40:24 -69.63, 95.16 133.54 2.35 71
2 07/01/2013 18:30:10 69.50, -97.43 46.34 07/01/2013 18:29:51 69.51, -97.35 46.35 3.09 19
3 07/03/2013 22:23:31 -69.62, 24.08 133.37 07/03/2013 22:24:40 -69.63, 24.09 133.37 0.79 69
4 07/03/2013 23:14:28 69.50,-168.49 46.52 07/03/2013 23:14:07 69.51,-168.43 46.52 2.55 21
5 07/06/2013 03:07:48 -69.61, -46.97 133.17 07/06/2013 03:08:55 -69.61, -47.00 133.17 1.11 67
6 07/06/2013 03:58:44 69.46, 120.51 46.68 07/06/2013 03:58:22 69.49, 120.48 46.71 3.26 22
7 07/08/2013 07:52:06 -69.61,-118.03 132.93 07/08/2013 07:53:10 -69.64,-118.02 132.91 3.08 64
8 07/08/2013 08:43:02 69.48, 49.42 46.94 07/08/2013 08:42:38 69.46, 49.38 46.92 2.93 24
9 07/10/2013 12:36:24 -69.62, 170.89 132.65 07/10/2013 12:37:26 -69.60, 170.86 132.68 3.11 62
10 07/10/2013 13:27:19 69.45, -21.60 47.18 07/10/2013 13:26:53 69.47, -21.67 47.20 3.54 26
11 07/12/2013 17:20:42 -69.64, 99.80 132.33 07/12/2013 17:21:40 -69.65, 99.87 132.33 2.77 58
12 07/12/2013 18:11:37 69.49, -92.70 47.52 07/12/2013 18:11:08 69.47, -92.73 47.50 2.14 29
13 07/14/2013 22:04:59 -69.62, 28.77
